• In United Kingdom
  • List of Countries
  • For 7 days
  • Water Temperature
  • Satellite Maps
  • Weather Map
  • Weather Widgets
  • user-avatar
    Login

    Hourly Weather Khulna

    Today, 20 April, Friday

    Time Temperature Precipitation Wind Pressure Humidity
    00:00 +29°C° 0 mm 5 mps 752 mmHg 85%
    01:00 +29°C° 0 mm 5 mps 752 mmHg 84%
    02:00 +30°C° 0 mm 5 mps 752 mmHg 83%
    03:00 +30°C° 0 mm 5 mps 752 mmHg 82%
    04:00 +30°C° 0 mm 5 mps 752 mmHg 81%
    05:00 +30°C° 0 mm 5 mps 752 mmHg 81%
    06:00 +30°C° 0 mm 4 mps 752 mmHg 80%
    07:00 +32°C° 0 mm 5 mps 753 mmHg 74%
    08:00 +34°C° 0 mm 5 mps 753 mmHg 68%
    09:00 +35°C° 0 mm 5 mps 753 mmHg 62%
    10:00 +37°C° 0 mm 5 mps 753 mmHg 54%
    11:00 +40°C° 0 mm 5 mps 753 mmHg 46%
    12:00 +42°C° 0 mm 5 mps 753 mmHg 38%
    13:00 +42°C° 0 mm 5 mps 753 mmHg 36%
    14:00 +42°C° 0 mm 5 mps 752 mmHg 35%
    15:00 +42°C° 0 mm 5 mps 751 mmHg 34%
    16:00 +40°C° 0 mm 6 mps 751 mmHg 41%
    17:00 +39°C° 0 mm 6 mps 751 mmHg 48%
    18:00 +36°C° 0 mm 7 mps 751 mmHg 56%
    19:00 +35°C° 0 mm 7 mps 751 mmHg 63%
    20:00 +33°C° 0 mm 7 mps 752 mmHg 70%
    21:00 +32°C° 0 mm 7 mps 752 mmHg 77%
    22:00 +32°C° 0 mm 6 mps 752 mmHg 78%
    23:00 +30°C° 0 mm 6 mps 752 mmHg 79%

    Tomorrow, 21 April, Saturday

    Time Temperature Precipitation Wind Pressure Humidity
    00:00 +30°C° 0 mm 6 mps 752 mmHg 80%
    01:00 +30°C° 0 mm 5 mps 752 mmHg 81%
    02:00 +30°C° 0 mm 4 mps 752 mmHg 83%
    03:00 +29°C° 0 mm 4 mps 751 mmHg 84%
    04:00 +30°C° 0 mm 4 mps 752 mmHg 83%
    05:00 +30°C° 0 mm 4 mps 752 mmHg 82%
    06:00 +30°C° 0 mm 4 mps 752 mmHg 82%
    07:00 +32°C° 0 mm 5 mps 753 mmHg 76%
    08:00 +33°C° 0 mm 5 mps 753 mmHg 70%
    09:00 +34°C° 0 mm 6 mps 754 mmHg 64%
    10:00 +38°C° 0 mm 6 mps 754 mmHg 56%
    11:00 +40°C° 0 mm 7 mps 753 mmHg 47%
    12:00 +43°C° 0 mm 8 mps 753 mmHg 39%
    13:00 +43°C° 0 mm 8 mps 752 mmHg 39%
    14:00 +43°C° 0 mm 8 mps 751 mmHg 38%
    15:00 +43°C° 0 mm 8 mps 750 mmHg 38%
    16:00 +40°C° 0 mm 8 mps 750 mmHg 45%
    17:00 +38°C° 0 mm 8 mps 750 mmHg 51%
    18:00 +35°C° 0 mm 7 mps 750 mmHg 58%
    19:00 +34°C° 0 mm 7 mps 750 mmHg 63%
    20:00 +33°C° 0 mm 6 mps 751 mmHg 69%
    21:00 +32°C° 0 mm 6 mps 752 mmHg 74%
    22:00 +32°C° 0 mm 6 mps 752 mmHg 76%
    23:00 +32°C° 0 mm 6 mps 752 mmHg 77%

    Day after tomorrow, 22 April, Sunday

    Time Temperature Precipitation Wind Pressure Humidity
    00:00 +32°C° 0 mm 6 mps 752 mmHg 78%
    01:00 +30°C° 0 mm 5 mps 752 mmHg 79%
    02:00 +30°C° 0 mm 5 mps 752 mmHg 80%
    03:00 +30°C° 0 mm 4 mps 752 mmHg 81%
    04:00 +30°C° 0 mm 4 mps 752 mmHg 81%
    05:00 +30°C° 0 mm 4 mps 752 mmHg 81%
    06:00 +30°C° 0 mm 5 mps 752 mmHg 80%
    07:00 +32°C° 0 mm 5 mps 753 mmHg 77%
    08:00 +33°C° 0 mm 5 mps 754 mmHg 74%
    09:00 +34°C° 0 mm 6 mps 755 mmHg 70%
    10:00 +35°C° 0 mm 6 mps 754 mmHg 66%
    11:00 +36°C° 0 mm 6 mps 754 mmHg 61%
    12:00 +38°C° 0 mm 6 mps 754 mmHg 56%
    13:00 +39°C° 0 mm 6 mps 754 mmHg 55%
    14:00 +39°C° 0 mm 6 mps 753 mmHg 54%
    15:00 +39°C° 0 mm 6 mps 752 mmHg 52%
    16:00 +38°C° 0.8 mm 7 mps 752 mmHg 57%
    17:00 +36°C° 0.8 mm 7 mps 751 mmHg 62%
    18:00 +34°C° 0.8 mm 7 mps 751 mmHg 67%
    19:00 +33°C° 0.2 mm 6 mps 752 mmHg 71%
    20:00 +33°C° 0.2 mm 6 mps 753 mmHg 74%
    21:00 +32°C° 0.2 mm 5 mps 754 mmHg 78%
    22:00 +32°C° 0 mm 5 mps 754 mmHg 79%
    23:00 +32°C° 0 mm 4 mps 754 mmHg 81%

    23 April, Monday

    Time Temperature Precipitation Wind Pressure Humidity
    00:00 +30°C° 0 mm 3 mps 754 mmHg 82%
    01:00 +30°C° 0 mm 3 mps 753 mmHg 82%
    02:00 +30°C° 0 mm 4 mps 753 mmHg 82%
    03:00 +30°C° 0 mm 4 mps 753 mmHg 82%
    04:00 +30°C° 0 mm 4 mps 753 mmHg 83%
    05:00 +30°C° 0 mm 4 mps 753 mmHg 84%
    06:00 +29°C° 0 mm 4 mps 753 mmHg 85%
    07:00 +32°C° 0 mm 4 mps 754 mmHg 77%
    08:00 +34°C° 0 mm 5 mps 755 mmHg 69%
    09:00 +36°C° 0 mm 5 mps 755 mmHg 61%
    10:00 +39°C° 0 mm 5 mps 755 mmHg 53%
    11:00 +40°C° 0 mm 4 mps 755 mmHg 45%
    12:00 +42°C° 0 mm 4 mps 754 mmHg 36%
    13:00 +43°C° 0 mm 4 mps 753 mmHg 32%
    14:00 +44°C° 0 mm 4 mps 753 mmHg 27%
    15:00 +45°C° 0 mm 4 mps 752 mmHg 23%
    16:00 +43°C° 0 mm 4 mps 752 mmHg 28%
    17:00 +41°C° 0 mm 4 mps 751 mmHg 34%
    18:00 +40°C° 0 mm 4 mps 751 mmHg 39%
    19:00 +37°C° 0 mm 5 mps 752 mmHg 51%
    20:00 +35°C° 0 mm 5 mps 752 mmHg 63%
    21:00 +33°C° 0 mm 6 mps 753 mmHg 76%
    22:00 +32°C° 0 mm 5 mps 753 mmHg 77%
    23:00 +32°C° 0 mm 5 mps 753 mmHg 79%

    24 April, Tuesday

    Time Temperature Precipitation Wind Pressure Humidity
    00:00 +30°C° 0 mm 5 mps 753 mmHg 81%
    01:00 +30°C° 0 mm 5 mps 753 mmHg 82%
    02:00 +30°C° 0 mm 4 mps 752 mmHg 84%
    03:00 +29°C° 0 mm 4 mps 752 mmHg 85%
    04:00 +29°C° 0 mm 4 mps 753 mmHg 86%
    05:00 +29°C° 0 mm 3 mps 753 mmHg 87%
    06:00 +29°C° 0 mm 3 mps 753 mmHg 88%
    07:00 +31°C° 0 mm 3 mps 754 mmHg 76%
    08:00 +34°C° 0 mm 3 mps 755 mmHg 65%
    09:00 +36°C° 0 mm 3 mps 755 mmHg 54%
    10:00 +38°C° 0 mm 3 mps 755 mmHg 44%
    11:00 +42°C° 0 mm 3 mps 754 mmHg 35%
    12:00 +44°C° 0 mm 4 mps 754 mmHg 25%
    13:00 +44°C° 0 mm 4 mps 753 mmHg 23%
    14:00 +45°C° 0 mm 4 mps 752 mmHg 21%
    15:00 +46°C° 0 mm 5 mps 751 mmHg 19%
    16:00 +43°C° 0 mm 5 mps 751 mmHg 27%
    17:00 +41°C° 0 mm 6 mps 751 mmHg 36%
    18:00 +39°C° 0 mm 6 mps 751 mmHg 44%
    19:00 +36°C° 0 mm 6 mps 751 mmHg 53%
    20:00 +34°C° 0 mm 6 mps 752 mmHg 62%
    21:00 +32°C° 0 mm 6 mps 752 mmHg 71%
    22:00 +32°C° 0 mm 5 mps 752 mmHg 74%
    23:00 +32°C° 0 mm 5 mps 752 mmHg 77%

    25 April, Wednesday

    Time Temperature Precipitation Wind Pressure Humidity
    00:00 +30°C° 0 mm 5 mps 752 mmHg 80%
    01:00 +30°C° 0 mm 5 mps 752 mmHg 81%
    02:00 +30°C° 0 mm 4 mps 752 mmHg 82%
    03:00 +30°C° 0 mm 4 mps 751 mmHg 83%
    04:00 +29°C° 0 mm 4 mps 752 mmHg 83%
    05:00 +29°C° 0 mm 3 mps 752 mmHg 83%
    06:00 +29°C° 0 mm 3 mps 753 mmHg 84%
    07:00 +32°C° 0 mm 4 mps 753 mmHg 74%
    08:00 +34°C° 0 mm 4 mps 754 mmHg 65%
    09:00 +37°C° 0 mm 4 mps 754 mmHg 55%
    10:00 +40°C° 0 mm 5 mps 754 mmHg 48%
    11:00 +42°C° 0 mm 5 mps 753 mmHg 41%
    12:00 +45°C° 0 mm 6 mps 753 mmHg 34%
    13:00 +44°C° 0 mm 6 mps 752 mmHg 34%
    14:00 +44°C° 0 mm 6 mps 751 mmHg 33%
    15:00 +44°C° 0 mm 7 mps 751 mmHg 32%
    16:00 +41°C° 0.7 mm 7 mps 750 mmHg 41%
    17:00 +39°C° 0.7 mm 6 mps 750 mmHg 49%
    18:00 +36°C° 0.7 mm 6 mps 750 mmHg 58%
    19:00 +35°C° 0 mm 6 mps 751 mmHg 63%
    20:00 +33°C° 0 mm 6 mps 751 mmHg 68%
    21:00 +32°C° 0 mm 6 mps 752 mmHg 74%
    22:00 +32°C° 0 mm 5 mps 752 mmHg 76%
    23:00 +32°C° 0 mm 4 mps 752 mmHg 78%
    Show more